Location: Helsinki
(60.1699°N, 24.9384°E)
Time: 00:00:17
(UTC+02:00)

A-11 Canister half - Pass Details

Date: 04 November 2020
Orbit: 1516 x 1684 km, 47.2° (Epoch: 26 November)

Event Time Altitude Azimuth Distance (km) Brightness Sun altitude
Rises 17:59:07 0° 198° (SSW) 4,928 12.0 -13.0°
Reaches altitude 10° 18:03:17 10° 184° (S) 3,944 11.3 -13.5°
Maximum altitude 18:10:11 21° 140° (SE) 3,126 10.3 -14.3°
Enters shadow 18:14:53 15° 107° (ESE) 3,517 10.3 -14.9°
Drops below altitude 10° 18:17:01 10° 97° (E) 3,913 - -15.2°
Sets 18:21:07 0° 83° (E) 4,880 - -15.7°
